www.pogodaiklimat.ru

Погода и климат >> Архив погоды >> Россия >> Свердловская область >> Ирбит


ПОГОДА в Ирбите

  • Прогноз погоды в Ирбите
  • Монитор погоды в Ирбите
  • Климат города

АРХИВ ПОГОДЫ в Ирбите

Время (UTC), дата Ветер
(напр.,м/с)
 
Видим.   Явления Облачность Т
(С)
Тd
(С)
f
(%)
Тe
(С)
Тes
(С)
Комфортность P
(гПа)
Po
(гПа)
Тmin
(С)
Tmax
(С)
R
(мм)
R24
(мм)
S
(см)
06 17.05 С 2 50 км 8/6 600 м
[Cb calv Ac trans Ci sp]
+10.2 -5.8 32 +9 +13 1027.7 1018.6
09 17.05 СЗ 2 50 км 9/8 600 м
[Cb calv Ac trans Ci sp]
+11.1 -6.2 29 +11 +13 1027.2 1018.1
12 17.05 СЗ 1 50 км 9/8 600 м
[Cb calv Ac trans Ci sp]
+11.6 -5.1 31 +12 +13 1026.6 1017.5
15 17.05 СВ 1 50 км 9/9 600 м
[Cb calv]
+10.9 -4.9 33 +11 +11 1026.2 1017.1 +12.8
18 17.05 СЗ 2 50 км 10/10 600 м
[Sc]
+7.7 -0.6 56 +6 +6 1026.1 1016.9
21 17.05 штиль 0 н/о н/о +7.7 -2.0 50 +7 +7 1025.3 1016.1
00 18.05 ЮЗ 1 50 км в посл. час ливневой дождь 10/10 600 м
[Cb calv Ac As]
+6.5 -1.1 58 +6 +6 1024.1 1014.9
03 18.05 ЮЗ 2 50 км в посл. час ливневой дождь 9/9 600 м
[Cb calv]
+9.0 -0.7 51 +8 +8 1022.8 1013.7 +6.5
06 18.05 З 2 50 км {ливн. осадки} 9/9 600 м
[Cb calv]
+14.1 -1.0 35 +14 +15 1021.6 1012.6
09 18.05 З 5-10
{12}
50 км 9/8 600 м
[Cb calv Ci fib]
+18.7 -0.7 27 +18 +20 1019.8 1011.0
12 18.05 СЗ 3
{11}
50 км 9/8 600 м
[Cu med, cong Ci]
+18.4 -1.8 25 +19 +19 1018.9 1010.1
15 18.05 СЗ 4
{11}
50 км 9/5 600 м
[Cb calv Ci]
+18.3 -2.0 25 +18 +18 1018.5 1009.7 +20.1
18 18.05 штиль 0 50 км 6/3 600 м
[Sc Ac trans Ci]
+11.5 +0.5 47 +11 +11 1019.6 1010.6
21 18.05 З 2 50 км 4/0
[Ci fib]
+9.1 +0.5 55 +8 +8 1020.4 1011.3
00 19.05 Ю 1 50 км 9/5 600 м
[Sc Ac trans Ci fib]
+7.6 +1.5 65 +7 +7 1020.8 1011.7
03 19.05 Ю 2 50 км 9/6 600 м
[Sc Ac trans Ci fib]
+11.5 +2.1 52 +11 +12 1020.5 1011.5 +6.5
06 19.05 З 4 50 км 8/3 600 м
[Sc Ac trans Cc]
+18.7 +3.4 36 +19 +23 1019.4 1010.6
09 19.05 СЗ 3
{11}
50 км в посл. час ливневой дождь 10/8 600 м
[Cb calv Ac As]
+15.1 +7.7 61 +14 +15 1019.7 1010.8
12 19.05 СЗ 2 50 км {гроза, ливн. осадки} 10/4 600 м
[Cb calv Cs]
+18.5 +5.0 41 +19 +22 1017.9 1009.1
15 19.05 СЗ 1 50 км 9/9 1000 м
[Sc]
+16.0 +5.3 49 +17 +17 1016.8 1007.9 +20.1
18 19.05 ЮЗ 1 50 км 10/10 1000 м
[Sc]
+13.1 +5.8 61 +13 +13 1016.6 1007.7
21 19.05 Ю 1 50 км 10/8 1000 м
[Sc Ac trans Ci fib]
+11.7 +6.2 69 +12 +12 1016.4 1007.5
00 20.05 ЮВ 1 20 км 10/8 600 м
[Sc Ac trans Ci fib]
+9.9 +6.3 78 +10 +10 1015.9 1006.9
03 20.05 СЗ 1 50 км {ливн. осадки} 9/3 600 м
[Sc Ac trans Ci sp]
+12.8 +7.3 69 +13 +15 1016.0 1007.1 +9.7
06 20.05 З 1 50 км {ливн. осадки} 8/3 600 м
[Cu med, cong Ac trans Ci sp]
+18.3 +3.5 37 +20 +26 1014.1 1005.4
09 20.05 СВ 3
{13}
20 км гроза, ливневой дождь 9/9 600 м
[Cb calv]
+11.9 +10.3 90 +10 +11 1013.8 1004.9
12 20.05 В 2 50 км {гроза, ливн. осадки} 6/3 600 м
[Cu med, cong Ac trans Ci sp]
+20.5 +9.0 48 +23 +26 комфорт 1010.8 1002.2
15 20.05 В 1 50 км 8/3 600 м
[Sc Ac trans Ci sp]
+18.4 +6.6 46 +20 +20 1009.0 1000.3 +21.1 4
18 20.05 ЮВ 4 50 км 8/6 600 м
[Cb calv Ac trans]
+17.8 +5.8 45 +18 +18 1007.4 998.7
21 20.05 ЮВ 3 50 км 6/6 600 м
[Sc Ac trans Ci sp]
+15.1 +6.0 54 +15 +15 1005.9 997.2
00 21.05 ЮВ 4 50 км 3/3 600 м
[Sc]
+14.4 +5.1 54 +13 +13 1004.0 995.2
03 21.05 Ю 4 50 км 6/3 600 м
[Sc Ac trans Ci sp]
+17.2 +5.2 45 +17 +19 1002.6 993.9 +14.0
06 21.05 З 5-11
{11}
50 км 8/5 600 м
[Cu med, cong Ac trans Ci fib]
+22.4 +6.3 35 +23 +25 комфорт 1001.0 992.5
09 21.05 З 5
{12}
50 км 10/10 600 м
[Cb calv]
+22.0 +4.9 33 +22 +22 комфорт 1000.6 992.1
12 21.05 ЮЗ 2
{11}
50 км {ливн. осадки} 10/10 600 м
[Cb calv]
+20.9 +5.5 37 +22 +22 комфорт 1000.0 991.5
15 21.05 ЮЗ 2
{11}
50 км слабый дождь 10/10 600 м
[Sc]
+17.7 +7.9 53 +18 +18 999.8 991.2 +23.6
18 21.05 Ю 3 25 км слабый дождь 10/10 600 м
[Sc]
+13.3 +10.7 84 +12 +12 998.7 990.0
21 21.05 ЮЗ 2 40 км в посл. час дождь 10/10 600 м
[Sc]
+11.8 +10.8 94 +11 +11 994.8 986.0
00 22.05 В 2 4000 м дождь 10/0 300 м
[As op]
+11.3 +10.6 95 +10 +10 989.9 981.2
03 22.05 СЗ 5-11
{11}
4000 м дождь 10/0 300 м
[As op]
+11.0 +10.4 96 +8 +9 990.0 981.2 +11.0 24
06 22.05 СЗ 6-11
{12}
20 км слабый дождь 10/10 600 м
[Sc]
+3.9 +2.3 89 -2 -2 996.9 987.8 +3.9
09 22.05 СЗ 3
{11}
50 км {дождь} 10/10 600 м
[Sc]
+4.5 +1.9 83 +1 +1 1001.3 992.2
12 22.05 СЗ 3 50 км {дождь} 10/10 600 м
[Sc]
+6.6 +2.8 77 +4 +4 1003.8 994.7
15 22.05 СЗ 1 50 км 9/5 600 м
[Sc Ac trans Ci sp]
+7.2 +2.3 71 +7 +7 1004.6 995.6 +10.8 4
18 22.05 СЗ 1 50 км 8/3 600 м
[Sc Ac trans Ci sp]
+4.3 +2.8 90 +3 +3 1004.8 995.7
21 22.05 СВ 2 30 км 9/8 600 м
[Sc Ac trans]
+4.2 +0.9 79 +2 +2 1005.9 996.8
00 23.05 СЗ 2 50 км 9/3 600 м
[Sc Ac trans Cs]
+3.3 -2.5 66 +1 +1 1005.6 996.5
03 23.05 СВ 4 50 км 9/3 600 м
[Sc Cs]
+4.3 -2.6 61 0 +2 1004.5 995.4 +3.3
06 23.05 С 4 50 км 9/1 600 м
[Sc Cs]
+7.8 -2.2 49 +5 +11 1004.5 995.5
09 23.05 С 4 50 км 10/9 600 м
[Sc Cs]
+8.9 -2.3 45 +6 +7 1004.0 995.0
12 23.05 С 5 50 км 9/9 600 м
[Sc Cs]
+10.0 -3.0 40 +7 +8 1003.7 994.8
15 23.05 С 3 50 км 9/9 600 м
[Sc]
+9.2 -3.2 42 +7 +7 1004.5 995.5 +10.2
18 23.05 штиль 0 50 км 10/10 1000 м
[Sc]
+6.6 +1.4 69 +6 +6 1005.5 996.5
21 23.05 З 1 50 км 10/4 1000 м
[Sc Ac und]
+5.4 +1.4 75 +4 +4 1005.4 996.3
00 24.05 Ю 1 50 км 10/10 1000 м
[Sc]
+4.8 +0.6 74 +4 +4 1005.7 996.6
03 24.05 СЗ 1 50 км 10/9 1000 м
[Sc Ci fib]
+5.8 +0.4 68 +5 +5 1006.7 997.6 +4.8

 

Местоположение метеостанции Ирбит (Свердловская область, Россия): широта 57.62 долгота 62.97 высота над уровнем моря 74 м.

В архиве по умолчанию представлена погода в Ирбите за последнюю неделю. Архивные данные за месяц целиком и за предыдущие месяцы, начиная с января 2011 года, Вы можете получить, выбрав интересующий диапазон дат из раскрывающегося списка и нажав кнопку "Ввод!".

Внимание! Время в таблицах - всемирное. Для получения местного времени необходимо прибавить поправку, которая в Ирбите равна 5 ч.

Смотрите также архив погоды в соседних городах и на ближайших метеорологических станциях:

Погода в Туринске (Свердловская область, Россия) (64 км)
Погода в Артемовском (Свердловская область, Россия) (69 км)
Погода в Алапаевске (Свердловская область, Россия) (80 км)
Погода в Камышлове (Свердловская область, Россия) (87 км)
Погода в Тугулыме (Свердловская область, Россия) (119 км)
Погода в Таборах (Свердловская область, Россия) (135 км)
Погода в Тавде (Свердловская область, Россия) (145 км)
Погода в Каменск-Уральском (Свердловская область, Россия) (148 км)
Погода в Далматово (Курганская область, Россия) (150 км)
Погода в Верхнем Дуброво (Свердловская область, Россия) (151 км)

Пояснения к столбцам:

Ветер - указаны скорость ветра в м/с - средняя за 10 мин, порывы в срок и между сроками (в фигурных скобках) и направление, откуда дует ветер: С - северный, СВ - северо-восточный, В - восточный, ЮВ - юго-восточный, Ю - южный, ЮЗ - юго-западный, З - западный, СЗ - северо-западный.
Видимость - горизонтальная дальность видимости в метрах или километрах. При видимости от 1 до 10 км при отсутствии осадков обычно наблюдается дымка, при ухудшении видимости до 1 км и менее - туман. В сухую погоду видимость может ухудшаться дымом, пылью или мглою.
Явления - указаны атмосферные явления, наблюдавшиеся в срок или в последний час перед сроком; фигурными скобками обозначены явления, наблюдавшиеся между сроками (за 1-3 часа до срока); квадратными скобками обозначены град или гололедные отложения с указанием их диаметра в мм.
Облачность - указаны через наклонную черту общая и нижняя облачность в баллах и высота нижней границы облаков в метрах; квадратными скобками обозначены формы облаков: Ci - перистые, Cs - перисто-слоистые, Cc - перисто-кучевые, Ac - высококучевые, As - высокослоистые, Sc - слоисто-кучевые, Ns - слоисто-дождевые, Cu - кучевые, Cb - кучево-дождевые. Подробнее классификацию облаков см. в Атласе облаков (PDF).
T - Температура воздуха - температура, измеренная на высоте 2 м над землей.
Td - Температура точки росы - температура, при понижении до которой содержащийся в воздухе водяной пар достигнет насыщения.
f - Относительная влажность воздуха - влажноcть воздуха, измеренная на высоте 2 м над землей.
Te - Эффективная температура - температура, которую ощущает одетый по сезону человек в тени. Характеристика душности погоды. При расчете учитывается влияние влажности воздуха и скорости ветра на теплоощущения человека.
Tes - Эффективная температура на солнце - температура, которую ощущает человек, с поправкой на солнечный нагрев. Характеристика знойности погоды. Зависит от высоты солнца над горизонтом, облачности и скорости ветра. Ночью, в пасмурную погоду, а также при ветре 12 м/с и более поправка равна нулю.
P - Атмосферное давление - приведенное к уровню моря атмосферное давление.
Po - Атмосферное давление - измеренное на уровне метеостанции атмосферное давление.
Tmin - Минимальная температура - минимум температуры воздуха на высоте 2 м над землей.
Tmax - Максимальная температура - максимум температуры воздуха на высоте 2 м над землей.
R - Количество осадков - Количество выпавших осадков за период времени, мм. При наведении курсора мыши на число - период времени, за который выпало указанное количество осадков.
R24 - Количество осадков - Количество выпавших осадков за 24 часа, мм.
S - Снежный покров - Высота снежного покрова, см. При наведении курсора мыши на число - состояние снежного покрова и степень покрытия местности в баллах.